Location: Newark
(47.1667°N, 6.4167°E)
Time: 15:48:04
(UTC+00:00)

X-37B - Visible Passes

Search period start: 25 February 2021 00:00
Search period end: 07 March 2021 00:00
Orbit: 383 x 391 km, 45.0° (Epoch: 10 February)

Date Brightness Start Highest point End Pass type
(mag) Time Alt. Az. Time Alt. Az. Time Alt. Az.
25 Feb 4.0 03:31:20 11° E 03:31:20 11° E 03:31:33 10° E visible
25 Feb 0.9 05:03:37 29° WSW 05:04:56 52° S 05:08:01 10° ESE visible
26 Feb 2.2 04:07:49 32° ESE 04:07:49 32° ESE 04:09:44 10° ESE visible
26 Feb 1.8 05:40:08 10° W 05:42:59 31° SSW 05:45:50 10° SE visible
27 Feb 1.1 04:44:21 40° SW 04:44:44 42° SSW 04:47:45 10° ESE visible
28 Feb 3.3 03:48:38 17° ESE 03:48:38 17° ESE 03:49:33 10° ESE visible
28 Feb 2.2 05:20:56 14° WSW 05:22:43 21° SSW 05:25:12 10° SSE visible
01 Mar 2.1 04:25:18 27° S 04:25:18 27° S 04:27:21 10° SE visible
02 Mar 2.7 05:02:03 14° SW 05:02:23 14° SSW 05:04:08 10° S visible
03 Mar 3.4 04:06:36 11° SSE 04:06:36 11° SSE 04:06:44 10° SSE visible
